Flag for U.S.A. Weather past 2 weeks in Montgomery, Alabama, U.S.A.

Now
77 °F

Mostly cloudy.


Feels Like: 78 °F
Forecast: 74 / 90 °F
Wind: 3 mph from West

Location: Maxwell Air Force Base / Montgomery

Current Time: Sep 3, 2014 at 12:27:32 AM

Latest Report: Sep 2, 2014 at 11:58 PM


Visibility: 10 mi

Pressure: 30.03 "Hg

Humidity: 87%

Dew point: 73 °F

Location of MontgomeryLocation

Historic Weather in Montgomery — Graph

°F

Montgomery temperature yesterday

Maximum temperature yesterday: 96 °F (at 3:58 PM)
Minimum temperature yesterday: 73 °F (at 5:58 AM)
Average temperature yesterday: 84 °F

Past Weeks' High & Low Weather Summary

 TemperatureHumidityPressure
High98 °F (Aug 23, 3:58 PM)100% (Aug 18, 10:58 PM)30.15 "Hg (Aug 18, 10:58 PM)
Low68 °F (Aug 27, 5:58 AM)32% (Aug 28, 4:58 PM)29.84 "Hg (Aug 24, 3:58 PM)
Average81 °F76%30.03 "Hg
* Reported Aug 18 10:58 PM — Sep 2 10:58 PM, Montgomery, Weather by CustomWeather, © 2014

Note: Actual official high and low records may vary slightly from our data, if they occured in-between our weather recording intervals... More about our weather records

Advertising

Montgomery weather history for previous 24 hours

 ConditionsComfort  
Time TempWeatherWind HumidityBarometerVisibility
10:58 PM
Sep 2
77 °FMostly cloudy.2 mph84%30.03 "Hg10 mi
9:58 PM78 °FClear.6 mph82%30.01 "Hg10 mi
8:58 PM81 °FPassing clouds.5 mph73%30.00 "Hg10 mi
7:58 PM84 °FSunny.5 mph68%30.00 "Hg10 mi
6:58 PM87 °FSunny.7 mph62%29.98 "Hg10 mi
5:58 PM93 °FScattered clouds.5 mph50%29.95 "Hg10 mi
4:58 PM95 °FSunny.8 mph46%29.97 "Hg10 mi
3:58 PM96 °FPassing clouds.3 mph41%29.98 "Hg10 mi
2:58 PM93 °FPassing clouds.3 mph45%30.00 "Hg10 mi
1:58 PM94 °FPassing clouds.5 mph47%30.03 "Hg10 mi
12:58 PM94 °FSunny.5 mph47%30.07 "Hg10 mi
11:58 AM91 °FPassing clouds.6 mph54%30.09 "Hg10 mi
10:58 AM90 °FScattered clouds.5 mph59%30.11 "Hg10 mi
9:58 AM85 °FScattered clouds.2 mph73%30.11 "Hg10 mi
8:58 AM83 °FSunny.2 mph77%30.11 "Hg10 mi
7:58 AM79 °FSunny.1 mph86%30.11 "Hg10 mi
6:58 AM74 °FClear.No wind100%30.10 "Hg10 mi
5:58 AM73 °FClear.No wind100%30.07 "Hg10 mi
4:58 AM73 °FClear.No wind100%30.07 "Hg10 mi
3:58 AM74 °FClear.2 mph100%30.06 "Hg10 mi
2:58 AM76 °FClear.No wind93%30.05 "Hg10 mi
1:58 AM75 °FClear.No wind92%30.05 "Hg10 mi
12:58 AM77 °FClear.No wind87%30.05 "Hg10 mi
Weather by CustomWeather, © 2014

See weather overviewHow to use our weather pages